Flag for Switzerland Weather past 2 weeks in Langenthal, Bern, Switzerland

Now
62 °F

Cool.


Feels Like: 62 °F
Forecast: 53 / 79 °F
Wind: 3 mph from West

Location: Wynau

Current Time: Aug 1, 2015 at 10:50:51 PM

Latest Report: Aug 1, 2015 at 10:00 PM


Visibility: N/A

Pressure: 30.05 "Hg

Humidity: 90%

Dew point: 59 °F

Location of LangenthalLocation

Historic Weather in Langenthal — Graph

°F

Langenthal temperature yesterday

Maximum temperature yesterday: 75 °F (at 3:00 PM)
Minimum temperature yesterday: 47 °F (at 6:00 AM)
Average temperature yesterday: 63 °F

Past Weeks' High & Low Weather Summary

 TemperatureHumidityPressure
High92 °F (Jul 21, 6:00 PM)98% (Jul 23, 6:00 AM)30.18 "Hg (Jul 23, 6:00 AM)
Low47 °F (Jul 31, 6:00 AM)27% (Jul 21, 6:00 PM)29.63 "Hg (Jul 24, 6:00 PM)
Average68 °F68%29.93 "Hg
* Reported Jul 17 9:00 PM — Aug 1 9:00 PM, Langenthal, Weather by CustomWeather, © 2015

Note: Actual official high and low records may vary slightly from our data, if they occured in-between our weather recording intervals... More about our weather records

Advertising

Langenthal weather history for previous 24 hours

 ConditionsComfort  
Time TempWeatherWind HumidityBarometerVisibility
9:00 PM
Sat, Aug 1
64 °FMild.2 mph82%30.02 "HgN/A
8:00 PM64 °FMild.1 mph88%30.00 "HgN/A
7:00 PM64 °FMild.1 mph90%29.99 "HgN/A
6:00 PM65 °FMild.1 mph85%29.99 "HgN/A
5:00 PM66 °FMild.1 mph75%29.98 "HgN/A
4:00 PM66 °FMild.1 mph76%29.98 "HgN/A
3:00 PM65 °FMild.2 mph76%29.98 "HgN/A
2:00 PM65 °FMild.2 mph79%29.98 "HgN/A
1:00 PM64 °FMild.2 mph78%29.98 "HgN/A
12:00 PM62 °FCool.2 mph83%30.00 "HgN/A
11:00 AM61 °FCool.1 mph93%30.01 "HgN/A
10:00 AM59 °FCool.2 mph92%30.01 "HgN/A
9:00 AM59 °FCool.1 mph91%30.00 "HgN/A
8:00 AM58 °FCool.2 mph96%30.00 "HgN/A
7:00 AM58 °FCool.6 mph96%29.98 "HgN/A
4:00 AM58 °FCool.No wind84%29.90 "HgN/A
3:00 AM58 °FCool.1 mph93%29.90 "HgN/A
2:00 AM57 °FCool.1 mph85%29.92 "HgN/A
1:00 AM59 °FCool.1 mph78%29.90 "HgN/A
12:00 AM61 °FCool.2 mph76%29.91 "HgN/A
11:00 PM
Fri, Jul 31
63 °FMild.1 mph68%29.90 "HgN/A
10:00 PM64 °FMild.No wind64%29.90 "HgN/A
Weather by CustomWeather, © 2015

See weather overviewHow to use our weather pages